FW8940 Weather Reports


time (UTC)temp
F
wind
direction
speed
knots
gust
knots
rain 1hr
in
rain 24hr
in
rain mn
in
humidity
%
barometer
mb
20260906224607 87 9 1.7 6.1 0.00 0.00 0.00 33 1018.0
20260906223106 89 45 1.7 6.1 0.00 0.00 0.00 32 1018.0
20260906221605 91 5 3.5 9.6 0.00 0.00 0.00 31 1018.2
20260906220107 92 247 1.7 5.2 0.00 0.00 0.00 29 1018.4
20260906214612 91 355 2.6 9.6 0.00 0.00 0.00 30 1018.7
20260906213104 90 5 3.5 8.7 0.00 0.00 0.00 31 1018.9
20260906211606 90 315 1.7 8.7 0.00 0.00 0.00 31 1019.1
20260906210117 89 304 1.7 7.8 0.00 0.00 0.00 32 1019.4
20260906204626 90 13 3.5 9.6 0.00 0.00 0.00 31 1019.7
20260906203103 89 25 2.6 8.7 0.00 0.00 0.00 32 1019.9
20260906201604 88 11 2.6 9.6 0.00 0.00 0.00 33 1020.0
20260906200106 87 47 4.3 11.3 0.00 0.00 0.00 34 1020.2
20260906194616 86 53 3.5 10.4 0.00 0.00 0.00 34 1020.3
20260906193124 86 5 2.6 7.8 0.00 0.00 0.00 35 1020.5
20260906191609 86 39 1.7 8.7 0.00 0.00 0.00 35 1020.7
20260906190105 86 0 1.7 8.7 0.00 0.00 0.00 36 1020.9
20260906184606 84 355 3.5 7.8 0.00 0.00 0.00 37 1021.2
20260906183106 83 286 0.0 9.6 0.00 0.00 0.00 40 1021.4
20260906181604 83 344 1.7 7.0 0.00 0.00 0.00 41 1021.7
20260906180135 82 360 1.7 7.0 0.00 0.00 0.00 42 1021.9
20260906174606 81 346 0.9 7.0 0.00 0.00 0.00 43 1022.1
20260906173105 80 355 2.6 7.8 0.00 0.00 0.00 47 1022.4
20260906171609 77 355 0.9 4.3 0.00 0.00 0.00 50 1022.7
20260906170107 75 309 0.9 4.3 0.00 0.00 0.00 52 1022.8
20260906164605 74 91 0.9 5.2 0.00 0.00 0.00 54 1023.0
20260906163104 74 322 2.6 7.0 0.00 0.00 0.00 55 1022.9
20260906161608 73 0 0.9 7.8 0.00 0.00 0.00 55 1022.8
20260906160109 74 343 1.7 4.3 0.00 0.00 0.00 55 1022.9
20260906154609 73 0 0.9 5.2 0.00 0.00 0.00 53 1023.0
20260906153118 74 9 0.9 4.3 0.00 0.00 0.00 53 1022.8
20260906151608 73 349 1.7 4.3 0.00 0.00 0.00 53 1023.0
20260906150103 72 0 0.0 2.6 0.00 0.00 0.00 52 1023.0
20260906144606 73 12 0.9 4.3 0.00 0.00 0.00 52 1023.0
20260906143116 72 265 0.0 0.9 0.00 0.00 0.00 53 1023.1
20260906141609 73 0 0.0 2.6 0.00 0.00 0.00 54 1023.0
20260906140109 70 0 0.9 2.6 0.00 0.00 0.00 57 1022.9
20260906134618 67 0 0.0 3.5 0.00 0.00 0.00 66 1023.0
20260906133110 65 209 0.0 5.2 0.00 0.00 0.00 67 1022.9
20260906131606 63 0 0.0 3.5 0.00 0.00 0.00 69 1022.6
20260906124615 62 0 0.0 0.0 0.00 0.00 0.00 65 1022.4
20260906123107 62 0 0.0 3.5 0.00 0.00 0.00 60 1022.4
20260906121610 63 195 1.7 4.3 0.00 0.00 0.00 62 1022.4
20260906120119 63 162 0.0 5.2 0.00 0.00 0.00 67 1022.5
20260906114610 63 161 1.7 3.5 0.00 0.00 0.00 69 1022.6
20260906113104 63 178 0.9 1.7 0.00 0.00 0.00 69 1022.7
20260906111607 64 209 0.9 4.3 0.00 0.00 0.00 64 1022.4
20260906110115 65 279 1.7 7.0 0.00 0.00 0.00 58 1022.2
20260906104604 65 180 1.7 4.3 0.00 0.00 0.00 55 1022.1
20260906103112 66 180 0.9 4.3 0.00 0.00 0.00 53 1022.0
20260906101605 66 210 0.0 4.3 0.00 0.00 0.00 52 1022.1
20260906100106 67 193 0.9 2.6 0.00 0.00 0.00 51 1022.0
20260906094608 67 201 0.9 3.5 0.00 0.00 0.00 51 1022.1
20260906093105 68 250 0.9 3.5 0.00 0.00 0.00 49 1022.2
20260906091602 70 0 0.0 2.6 0.00 0.00 0.00 46 1021.9
20260906090118 70 0 0.0 2.6 0.00 0.00 0.00 46 1021.8
20260906084618 70 0 0.0 3.5 0.00 0.00 0.00 45 1021.8
20260906083114 71 180 0.9 4.3 0.00 0.00 0.00 45 1021.7
20260906081601 71 153 1.7 7.8 0.00 0.00 0.00 45 1021.6
20260906080127 71 196 3.5 9.6 0.00 0.00 0.00 45 1021.7
20260906074610 71 206 3.5 10.4 0.00 0.00 0.00 45 1021.5
20260906073115 72 183 3.5 10.4 0.00 0.00 0.00 45 1021.3
20260906071602 72 184 4.3 7.8 0.00 0.00 0.00 43 1021.4
20260906070108 73 205 2.6 8.7 0.00 0.00 0.00 42 1021.4
20260906064607 72 200 2.6 8.7 0.00 0.00 0.00 44 1021.4
20260906063105 72 144 1.7 5.2 0.00 0.00 0.00 44 1021.8
20260906061605 72 232 2.6 8.7 0.00 0.00 0.00 43 1021.9
20260906060104 72 142 4.3 10.4 0.00 0.00 0.00 45 1021.9
20260906054603 71 184 4.3 9.6 0.00 0.00 0.00 48 1022.0
20260906053104 71 138 2.6 8.7 0.00 0.00 0.00 49 1022.3
20260906051607 73 171 1.7 12.2 0.00 0.00 0.00 46 1022.3
20260906050110 74 177 7.0 13.0 0.00 0.00 0.00 42 1022.5
20260906044602 75 128 4.3 12.2 0.00 0.00 0.00 40 1022.7
20260906043104 77 188 2.6 9.6 0.00 0.00 0.00 34 1022.9
20260906041605 78 132 0.0 3.5 0.00 0.00 0.00 33 1022.6
20260906040104 78 190 2.6 9.6 0.00 0.00 0.00 32 1021.4
20260906034639 78 157 2.6 7.8 0.00 0.00 0.00 31 1021.1
20260906033103 78 171 2.6 5.2 0.00 0.00 0.00 31 1020.9
20260906031601 77 221 1.7 6.1 0.00 0.00 0.00 32 1021.0
20260906024603 79 185 1.7 7.0 0.00 0.00 0.00 29 1020.6
20260906023102 79 180 2.6 6.1 0.00 0.00 0.00 29 1020.3
20260906021611 80 180 1.7 7.0 0.00 0.00 0.00 29 1020.3
20260906020107 81 188 1.7 6.1 0.00 0.00 0.00 28 1020.3
20260906014603 81 198 1.7 6.1 0.00 0.00 0.00 28 1020.2
20260906013108 81 202 0.9 4.3 0.00 0.00 0.00 28 1020.0
20260906011603 82 254 0.9 3.5 0.00 0.00 0.00 27 1020.1
20260906010107 83 0 0.0 2.6 0.00 0.00 0.00 27 1019.9
20260906004608 86 237 0.0 1.7 0.00 0.00 0.00 25 1020.0
20260906003108 89 0 0.0 1.7 0.00 0.00 0.00 23 1020.1
20260906001605 91 294 0.0 2.6 0.00 0.00 0.00 21 1020.0
20260906000112 93 0 0.0 0.0 0.00 0.00 0.00 20 1019.9
20260905234621 94 254 0.9 2.6 0.00 0.00 0.00 18 1019.9
20260905233104 92 207 1.7 3.5 0.00 0.00 0.00 20 1019.9
20260905231607 91 0 1.7 5.2 0.00 0.00 0.00 21 1019.9
20260905230106 89 13 1.7 5.2 0.00 0.00 0.00 22 1019.9